Time,TemperatureF,DewpointF,PressureIn,WindDirection,WindDirectionDegrees,WindSpeedMPH,WindSpeedGustMPH,Humidity,HourlyPrecipIn,Conditions,Clouds,dailyrainin,SoftwareType,DateUTC
2013-01-16 00:05:00,-6.5,-11.3,31.03,SE,138,0.0,0.0,79,0.00,,,0.00,Wunderground v.1.15,2013-01-16 07:05:00,
2013-01-16 00:15:00,-6.2,-11.3,31.02,SE,138,0.0,2.0,78,0.00,,,0.00,Wunderground v.1.15,2013-01-16 07:15:00,
2013-01-16 00:25:00,-6.4,-11.5,31.02,SE,138,0.0,2.0,78,0.00,,,0.00,Wunderground v.1.15,2013-01-16 07:25:00,
2013-01-16 00:35:00,-6.4,-11.5,31.02,SE,145,0.0,2.0,78,0.00,,,0.00,Wunderground v.1.15,2013-01-16 07:35:00,
2013-01-16 00:40:00,-6.4,-11.5,31.03,SE,145,0.0,2.0,78,0.00,,,0.00,Wunderground v.1.15,2013-01-16 07:40:00,
2013-01-16 00:45:00,-6.5,-11.8,31.03,SE,145,0.0,2.0,77,0.00,,,0.00,Wunderground v.1.15,2013-01-16 07:45:00,
2013-01-16 00:50:00,-6.5,-11.3,31.03,SE,145,0.0,2.0,79,0.00,,,0.00,Wunderground v.1.15,2013-01-16 07:50:00,
2013-01-16 00:55:00,-6.5,-11.6,31.02,SE,145,0.0,2.0,78,0.00,,,0.00,Wunderground v.1.15,2013-01-16 07:55:00,
2013-01-16 01:05:00,-6.6,-12.2,31.02,SE,145,0.0,2.0,76,0.00,,,0.00,Wunderground v.1.15,2013-01-16 08:05:00,
2013-01-16 01:10:00,-6.8,-12.1,31.02,SE,145,0.0,2.0,77,0.00,,,0.00,Wunderground v.1.15,2013-01-16 08:10:00,
2013-01-16 01:15:00,-6.8,-11.9,31.02,SE,145,0.0,2.0,78,0.00,,,0.00,Wunderground v.1.15,2013-01-16 08:15:00,
2013-01-16 01:25:00,-6.8,-11.9,31.02,SE,145,0.0,2.0,78,0.00,,,0.00,Wunderground v.1.15,2013-01-16 08:25:00,
2013-01-16 01:30:00,-6.7,-11.5,31.02,SE,145,0.0,2.0,79,0.00,,,0.00,Wunderground v.1.15,2013-01-16 08:30:00,
2013-01-16 01:40:00,-7.1,-12.2,31.03,SE,145,0.0,2.0,78,0.00,,,0.00,Wunderground v.1.15,2013-01-16 08:40:00,
2013-01-16 01:45:00,-7.2,-12.5,31.04,SE,145,0.0,2.0,77,0.00,,,0.00,Wunderground v.1.15,2013-01-16 08:45:00,
2013-01-16 01:55:00,-7.3,-12.3,31.05,SE,145,0.0,2.0,78,0.00,,,0.00,Wunderground v.1.15,2013-01-16 08:55:00,
2013-01-16 02:00:00,-7.4,-12.4,31.05,SE,145,0.0,2.0,78,0.00,,,0.00,Wunderground v.1.15,2013-01-16 09:00:00,
2013-01-16 02:10:00,-7.4,-12.7,31.06,SE,145,0.0,2.0,77,0.00,,,0.00,Wunderground v.1.15,2013-01-16 09:10:00,
2013-01-16 02:15:00,-7.6,-12.9,31.05,SE,145,0.0,2.0,77,0.00,,,0.00,Wunderground v.1.15,2013-01-16 09:15:00,
2013-01-16 02:25:00,-7.5,-12.8,31.06,SE,145,0.0,2.0,77,0.00,,,0.00,Wunderground v.1.15,2013-01-16 09:25:00,
2013-01-16 02:30:00,-7.6,-12.9,31.05,SE,145,0.0,2.0,77,0.00,,,0.00,Wunderground v.1.15,2013-01-16 09:30:00,
2013-01-16 02:40:00,-7.7,-13.0,31.05,SE,145,0.0,2.0,77,0.00,,,0.00,Wunderground v.1.15,2013-01-16 09:40:00,
2013-01-16 02:45:00,-7.7,-13.0,31.04,SE,145,0.0,2.0,77,0.00,,,0.00,Wunderground v.1.15,2013-01-16 09:45:00,
2013-01-16 02:50:00,-7.9,-12.9,31.04,SE,145,0.0,2.0,78,0.00,,,0.00,Wunderground v.1.15,2013-01-16 09:50:00,
2013-01-16 02:55:00,-7.4,-12.2,31.05,SE,145,0.0,2.0,79,0.00,,,0.00,Wunderground v.1.15,2013-01-16 09:55:00,
2013-01-16 03:00:00,-7.6,-13.2,31.05,SE,145,0.0,2.0,76,0.00,,,0.00,Wunderground v.1.15,2013-01-16 10:00:00,
2013-01-16 03:10:00,-8.0,-13.0,31.06,SE,146,0.0,2.0,78,0.00,,,0.00,Wunderground v.1.15,2013-01-16 10:10:00,
2013-01-16 03:15:00,-8.0,-13.3,31.06,SE,146,0.0,2.0,77,0.00,,,0.00,Wunderground v.1.15,2013-01-16 10:15:00,
2013-01-16 03:25:00,-8.0,-13.0,31.04,SE,146,0.0,1.0,78,0.00,,,0.00,Wunderground v.1.15,2013-01-16 10:25:00,
2013-01-16 03:35:00,-7.6,-12.4,31.04,SE,146,0.0,1.0,79,0.00,,,0.00,Wunderground v.1.15,2013-01-16 10:35:00,
2013-01-16 03:45:00,-7.3,-12.6,31.04,SE,146,0.0,1.0,77,0.00,,,0.00,Wunderground v.1.15,2013-01-16 10:45:00,
2013-01-16 03:50:00,-7.4,-13.0,31.03,SE,146,0.0,1.0,76,0.00,,,0.00,Wunderground v.1.15,2013-01-16 10:50:00,
2013-01-16 03:55:00,-7.8,-13.6,31.03,SE,146,0.0,1.0,75,0.00,,,0.00,Wunderground v.1.15,2013-01-16 10:55:00,
2013-01-16 04:00:00,-7.9,-13.5,31.02,SE,146,0.0,1.0,76,0.00,,,0.00,Wunderground v.1.15,2013-01-16 11:00:00,
2013-01-16 04:05:00,-8.0,-13.3,31.01,SE,146,0.0,1.0,77,0.00,,,0.00,Wunderground v.1.15,2013-01-16 11:05:00,
2013-01-16 04:15:00,-8.0,-13.5,31.01,SE,146,0.0,1.0,76,0.00,,,0.00,Wunderground v.1.15,2013-01-16 11:15:00,
2013-01-16 04:25:00,-8.1,-13.4,31.01,SE,146,0.0,0.0,77,0.00,,,0.00,Wunderground v.1.15,2013-01-16 11:25:00,
2013-01-16 04:30:00,-8.1,-13.1,31.01,SE,146,0.0,0.0,78,0.00,,,0.00,Wunderground v.1.15,2013-01-16 11:30:00,
2013-01-16 04:40:00,-8.0,-13.0,31.01,SE,146,0.0,1.0,78,0.00,,,0.00,Wunderground v.1.15,2013-01-16 11:40:00,
2013-01-16 04:45:00,-8.2,-13.5,31.02,SE,146,0.0,1.0,77,0.00,,,0.00,Wunderground v.1.15,2013-01-16 11:45:00,
2013-01-16 04:55:00,-8.3,-13.6,31.03,SE,146,0.0,0.0,77,0.00,,,0.00,Wunderground v.1.15,2013-01-16 11:55:00,
2013-01-16 05:00:00,-8.2,-13.5,31.03,SE,146,0.0,0.0,77,0.00,,,0.00,Wunderground v.1.15,2013-01-16 12:00:00,
2013-01-16 05:05:00,-8.1,-13.1,31.03,SE,146,0.0,0.0,78,0.00,,,0.00,Wunderground v.1.15,2013-01-16 12:05:00,
2013-01-16 05:10:00,-8.0,-13.3,31.03,SE,146,0.0,0.0,77,0.00,,,0.00,Wunderground v.1.15,2013-01-16 12:10:00,
2013-01-16 05:15:00,-8.0,-13.3,31.04,SE,146,0.0,0.0,77,0.00,,,0.00,Wunderground v.1.15,2013-01-16 12:15:00,
2013-01-16 05:25:00,-7.9,-13.5,31.04,SE,146,0.0,0.0,76,0.00,,,0.00,Wunderground v.1.15,2013-01-16 12:25:00,
2013-01-16 05:30:00,-8.1,-13.4,31.04,SE,146,0.0,0.0,77,0.00,,,0.00,Wunderground v.1.15,2013-01-16 12:30:00,
2013-01-16 05:35:00,-8.3,-13.6,31.03,SE,146,0.0,0.0,77,0.00,,,0.00,Wunderground v.1.15,2013-01-16 12:35:00,
2013-01-16 05:45:00,-7.1,-11.4,31.03,SE,146,0.0,0.0,81,0.00,,,0.00,Wunderground v.1.15,2013-01-16 12:45:00,
2013-01-16 05:50:00,-6.8,-12.1,31.04,SE,146,0.0,0.0,77,0.00,,,0.00,Wunderground v.1.15,2013-01-16 12:50:00,
2013-01-16 05:55:00,-6.8,-12.4,31.04,SE,146,0.0,0.0,76,0.00,,,0.00,Wunderground v.1.15,2013-01-16 12:55:00,
2013-01-16 06:00:00,-7.3,-13.1,31.03,SE,146,0.0,0.0,75,0.00,,,0.00,Wunderground v.1.15,2013-01-16 13:00:00,
2013-01-16 06:05:00,-7.4,-13.0,31.03,SE,146,0.0,0.0,76,0.00,,,0.00,Wunderground v.1.15,2013-01-16 13:05:00,
2013-01-16 06:10:00,-7.5,-13.1,31.03,SE,146,0.0,0.0,76,0.00,,,0.00,Wunderground v.1.15,2013-01-16 13:10:00,
2013-01-16 06:16:00,-7.5,-12.8,31.03,SE,146,0.0,0.0,77,0.00,,,0.00,Wunderground v.1.15,2013-01-16 13:16:00,
2013-01-16 06:25:00,-7.9,-13.7,31.03,SE,146,0.0,0.0,75,0.00,,,0.00,Wunderground v.1.15,2013-01-16 13:25:00,
2013-01-16 06:30:00,-8.1,-13.1,31.03,SE,146,0.0,0.0,78,0.00,,,0.00,Wunderground v.1.15,2013-01-16 13:30:00,
2013-01-16 06:40:00,-8.1,-13.1,31.03,SE,146,0.0,0.0,78,0.00,,,0.00,Wunderground v.1.15,2013-01-16 13:40:00,
2013-01-16 06:50:00,-7.9,-12.9,31.03,SE,146,0.0,0.0,78,0.00,,,0.00,Wunderground v.1.15,2013-01-16 13:50:00,
2013-01-16 07:00:00,-7.6,-12.9,31.02,SE,146,0.0,0.0,77,0.00,,,0.00,Wunderground v.1.15,2013-01-16 14:00:00,
2013-01-16 07:05:00,-7.3,-12.3,31.03,SE,146,0.0,0.0,78,0.00,,,0.00,Wunderground v.1.15,2013-01-16 14:05:00,
2013-01-16 07:10:00,-7.4,-13.0,31.03,SE,146,0.0,0.0,76,0.00,,,0.00,Wunderground v.1.15,2013-01-16 14:10:00,
2013-01-16 07:15:00,-7.7,-13.0,31.02,SE,146,0.0,0.0,77,0.00,,,0.00,Wunderground v.1.15,2013-01-16 14:15:00,
2013-01-16 07:20:00,-7.6,-12.9,31.02,SE,146,0.0,0.0,77,0.00,,,0.00,Wunderground v.1.15,2013-01-16 14:20:00,
2013-01-16 07:25:00,-7.7,-13.3,31.02,SE,146,0.0,0.0,76,0.00,,,0.00,Wunderground v.1.15,2013-01-16 14:25:00,
2013-01-16 07:30:00,-7.8,-12.8,31.02,SE,146,0.0,0.0,78,0.00,,,0.00,Wunderground v.1.15,2013-01-16 14:30:00,
2013-01-16 07:35:00,-8.1,-13.6,31.02,SE,146,0.0,0.0,76,0.00,,,0.00,Wunderground v.1.15,2013-01-16 14:35:00,
2013-01-16 07:40:00,-8.1,-13.1,31.03,SE,146,0.0,0.0,78,0.00,,,0.00,Wunderground v.1.15,2013-01-16 14:40:00,
2013-01-16 07:45:00,-8.1,-13.1,31.03,SE,146,0.0,0.0,78,0.00,,,0.00,Wunderground v.1.15,2013-01-16 14:45:00,
2013-01-16 07:55:00,-8.0,-13.0,31.04,SE,146,0.0,0.0,78,0.00,,,0.00,Wunderground v.1.15,2013-01-16 14:55:00,
2013-01-16 08:00:00,-8.1,-13.1,31.05,SE,146,0.0,0.0,78,0.00,,,0.00,Wunderground v.1.15,2013-01-16 15:00:00,
2013-01-16 08:05:00,-8.0,-12.8,31.06,SE,146,0.0,0.0,79,0.00,,,0.00,Wunderground v.1.15,2013-01-16 15:05:00,
2013-01-16 08:10:00,-7.9,-12.9,31.06,SE,146,0.0,0.0,78,0.00,,,0.00,Wunderground v.1.15,2013-01-16 15:10:00,
2013-01-16 08:15:00,-7.9,-12.7,31.06,SE,146,0.0,0.0,79,0.00,,,0.00,Wunderground v.1.15,2013-01-16 15:15:00,
2013-01-16 08:20:00,-7.6,-12.6,31.06,SE,146,0.0,0.0,78,0.00,,,0.00,Wunderground v.1.15,2013-01-16 15:20:00,
2013-01-16 08:30:00,-7.2,-12.0,31.06,SE,146,0.0,0.0,79,0.00,,,0.00,Wunderground v.1.15,2013-01-16 15:30:00,
2013-01-16 08:35:00,-6.9,-11.7,31.06,SE,146,0.0,0.0,79,0.00,,,0.00,Wunderground v.1.15,2013-01-16 15:35:00,
2013-01-16 08:40:00,-6.6,-11.2,31.07,SE,146,0.0,0.0,80,0.00,,,0.00,Wunderground v.1.15,2013-01-16 15:40:00,
2013-01-16 08:45:00,-6.1,-10.2,31.07,SE,146,0.0,0.0,82,0.00,,,0.00,Wunderground v.1.15,2013-01-16 15:45:00,
2013-01-16 08:55:00,-4.6,-8.4,31.07,SE,146,0.0,0.0,83,0.00,,,0.00,Wunderground v.1.15,2013-01-16 15:55:00,
2013-01-16 09:00:00,-3.9,-7.8,31.06,SE,146,0.0,0.0,83,0.00,,,0.00,Wunderground v.1.15,2013-01-16 16:00:00,
2013-01-16 09:05:00,-3.0,-6.4,31.06,SE,146,0.0,0.0,85,0.00,,,0.00,Wunderground v.1.15,2013-01-16 16:05:00,
2013-01-16 09:15:00,-0.8,-4.2,31.06,SE,146,0.0,0.0,85,0.00,,,0.00,Wunderground v.1.15,2013-01-16 16:15:00,
2013-01-16 09:25:00,2.1,-1.1,31.05,SE,146,0.0,0.0,86,0.00,,,0.00,Wunderground v.1.15,2013-01-16 16:25:00,
2013-01-16 09:30:00,3.1,-0.6,31.05,SE,146,0.0,0.0,84,0.00,,,0.00,Wunderground v.1.15,2013-01-16 16:30:00,
2013-01-16 09:35:00,3.8,0.3,31.04,SE,146,0.0,0.0,85,0.00,,,0.00,Wunderground v.1.15,2013-01-16 16:35:00,
2013-01-16 09:40:00,4.5,1.0,31.04,SE,146,0.0,0.0,85,0.00,,,0.00,Wunderground v.1.15,2013-01-16 16:40:00,
2013-01-16 09:45:00,5.9,2.6,31.04,SE,146,0.0,0.0,86,0.00,,,0.00,Wunderground v.1.15,2013-01-16 16:45:00,
2013-01-16 09:50:00,7.1,3.5,31.04,SE,146,0.0,0.0,85,0.00,,,0.00,Wunderground v.1.15,2013-01-16 16:50:00,
2013-01-16 10:00:00,9.0,5.1,31.04,SE,146,0.0,0.0,84,0.00,,,0.00,Wunderground v.1.15,2013-01-16 17:00:00,
2013-01-16 10:05:00,9.6,5.7,31.03,SE,146,0.0,1.0,84,0.00,,,0.00,Wunderground v.1.15,2013-01-16 17:05:00,
2013-01-16 10:10:00,10.3,6.2,31.03,SE,146,0.0,0.0,83,0.00,,,0.00,Wunderground v.1.15,2013-01-16 17:10:00,
2013-01-16 10:15:00,10.9,6.2,31.03,SE,146,0.0,1.0,81,0.00,,,0.00,Wunderground v.1.15,2013-01-16 17:15:00,
2013-01-16 10:25:00,11.6,4.6,31.04,SE,146,1.0,1.0,73,0.00,,,0.00,Wunderground v.1.15,2013-01-16 17:25:00,
2013-01-16 10:30:00,11.7,4.4,31.03,SE,146,0.0,0.0,72,0.00,,,0.00,Wunderground v.1.15,2013-01-16 17:30:00,
2013-01-16 10:35:00,11.8,4.5,31.02,SE,146,0.0,0.0,72,0.00,,,0.00,Wunderground v.1.15,2013-01-16 17:35:00,
2013-01-16 10:40:00,12.0,4.7,31.02,SE,146,0.0,1.0,72,0.00,,,0.00,Wunderground v.1.15,2013-01-16 17:40:00,
2013-01-16 10:45:00,12.5,5.2,31.02,SE,146,1.0,1.0,72,0.00,,,0.00,Wunderground v.1.15,2013-01-16 17:45:00,
2013-01-16 10:50:00,13.0,6.0,31.02,SE,146,0.0,1.0,73,0.00,,,0.00,Wunderground v.1.15,2013-01-16 17:50:00,
2013-01-16 11:00:00,14.3,6.9,31.02,SE,146,1.0,1.0,72,0.00,,,0.00,Wunderground v.1.15,2013-01-16 18:00:00,
2013-01-16 11:05:00,15.0,7.6,31.01,SE,146,1.0,1.0,72,0.00,,,0.00,Wunderground v.1.15,2013-01-16 18:05:00,
2013-01-16 11:10:00,15.7,8.3,31.01,SE,146,0.0,1.0,72,0.00,,,0.00,Wunderground v.1.15,2013-01-16 18:10:00,
2013-01-16 11:15:00,16.3,7.9,31.01,South,169,0.0,2.0,69,0.00,,,0.00,Wunderground v.1.15,2013-01-16 18:15:00,
2013-01-16 11:25:00,17.3,8.5,31.01,SSE,154,1.0,2.0,68,0.00,,,0.00,Wunderground v.1.15,2013-01-16 18:25:00,
2013-01-16 11:30:00,17.9,9.4,31.00,SSE,154,0.0,2.0,69,0.00,,,0.00,Wunderground v.1.15,2013-01-16 18:30:00,
2013-01-16 11:35:00,18.5,9.0,31.00,SSE,155,0.0,2.0,66,0.00,,,0.00,Wunderground v.1.15,2013-01-16 18:35:00,
2013-01-16 11:40:00,18.8,9.0,30.99,SSE,155,0.0,2.0,65,0.00,,,0.00,Wunderground v.1.15,2013-01-16 18:40:00,
2013-01-16 11:45:00,19.1,8.6,30.99,SSE,155,0.0,2.0,63,0.00,,,0.00,Wunderground v.1.15,2013-01-16 18:45:00,
2013-01-16 11:50:00,19.7,8.8,30.99,SSE,155,0.0,2.0,62,0.00,,,0.00,Wunderground v.1.15,2013-01-16 18:50:00,
2013-01-16 11:55:00,20.2,9.2,30.98,SSE,155,0.0,2.0,62,0.00,,,0.00,Wunderground v.1.15,2013-01-16 18:55:00,
2013-01-16 12:05:00,21.1,10.1,30.98,SSE,155,0.0,2.0,62,0.00,,,0.00,Wunderground v.1.15,2013-01-16 19:05:00,
2013-01-16 12:10:00,21.3,9.6,30.97,South,180,1.0,1.0,60,0.00,,,0.00,Wunderground v.1.15,2013-01-16 19:10:00,
2013-01-16 12:15:00,21.2,9.8,30.97,SE,145,1.0,2.0,61,0.00,,,0.00,Wunderground v.1.15,2013-01-16 19:15:00,
2013-01-16 12:25:00,21.1,9.7,30.97,SSE,162,1.0,2.0,61,0.00,,,0.00,Wunderground v.1.15,2013-01-16 19:25:00,
2013-01-16 12:35:00,22.1,10.3,30.96,SSE,162,0.0,2.0,60,0.00,,,0.00,Wunderground v.1.15,2013-01-16 19:35:00,
2013-01-16 12:40:00,22.7,10.5,30.95,SSE,162,0.0,2.0,59,0.00,,,0.00,Wunderground v.1.15,2013-01-16 19:40:00,
2013-01-16 12:45:00,23.2,9.8,30.95,SSE,162,1.0,2.0,56,0.00,,,0.00,Wunderground v.1.15,2013-01-16 19:45:00,
2013-01-16 12:50:00,23.9,11.6,30.94,SSE,162,1.0,1.0,59,0.00,,,0.00,Wunderground v.1.15,2013-01-16 19:50:00,
2013-01-16 12:55:00,24.6,12.3,30.94,SSE,162,0.0,2.0,59,0.00,,,0.00,Wunderground v.1.15,2013-01-16 19:55:00,
2013-01-16 13:05:00,25.3,11.0,30.94,SSE,162,1.0,2.0,54,0.00,,,0.00,Wunderground v.1.15,2013-01-16 20:05:00,
2013-01-16 13:10:00,25.5,11.6,30.93,SSE,162,1.0,2.0,55,0.00,,,0.00,Wunderground v.1.15,2013-01-16 20:10:00,
2013-01-16 13:15:00,25.8,12.2,30.93,SSE,162,1.0,2.0,56,0.00,,,0.00,Wunderground v.1.15,2013-01-16 20:15:00,
2013-01-16 13:25:00,26.3,12.7,30.92,SSE,162,0.0,2.0,56,0.00,,,0.00,Wunderground v.1.15,2013-01-16 20:25:00,
2013-01-16 13:30:00,26.7,12.7,30.91,SSE,162,0.0,2.0,55,0.00,,,0.00,Wunderground v.1.15,2013-01-16 20:30:00,
2013-01-16 13:35:00,26.5,11.7,30.91,South,187,1.0,2.0,53,0.00,,,0.00,Wunderground v.1.15,2013-01-16 20:35:00,
2013-01-16 13:40:00,26.4,13.2,30.91,South,171,1.0,1.0,57,0.00,,,0.00,Wunderground v.1.15,2013-01-16 20:40:00,
2013-01-16 13:45:00,26.4,12.8,30.91,South,171,0.0,2.0,56,0.00,,,0.00,Wunderground v.1.15,2013-01-16 20:45:00,
2013-01-16 13:50:00,26.2,11.8,30.91,South,171,1.0,1.0,54,0.00,,,0.00,Wunderground v.1.15,2013-01-16 20:50:00,
2013-01-16 13:55:00,26.2,12.2,30.90,South,171,1.0,2.0,55,0.00,,,0.00,Wunderground v.1.15,2013-01-16 20:55:00,
2013-01-16 14:00:00,26.2,11.8,30.90,South,171,0.0,2.0,54,0.00,,,0.00,Wunderground v.1.15,2013-01-16 21:00:00,
2013-01-16 14:10:00,26.2,13.0,30.89,South,171,0.0,2.0,57,0.00,,,0.00,Wunderground v.1.15,2013-01-16 21:10:00,
2013-01-16 14:15:00,26.3,13.1,30.90,South,171,0.0,3.0,57,0.00,,,0.00,Wunderground v.1.15,2013-01-16 21:15:00,
2013-01-16 14:25:00,26.7,12.3,30.90,South,170,1.0,3.0,54,0.00,,,0.00,Wunderground v.1.15,2013-01-16 21:25:00,
2013-01-16 14:30:00,26.6,12.6,30.89,South,170,1.0,1.0,55,0.00,,,0.00,Wunderground v.1.15,2013-01-16 21:30:00,
2013-01-16 14:40:00,26.6,11.7,30.89,South,170,0.0,3.0,53,0.00,,,0.00,Wunderground v.1.15,2013-01-16 21:40:00,
2013-01-16 14:45:00,26.4,11.6,30.90,SE,128,1.0,3.0,53,0.00,,,0.00,Wunderground v.1.15,2013-01-16 21:45:00,
2013-01-16 14:50:00,26.3,11.9,30.89,SE,128,0.0,3.0,54,0.00,,,0.00,Wunderground v.1.15,2013-01-16 21:50:00,
2013-01-16 14:55:00,26.3,11.9,30.90,South,183,0.0,3.0,54,0.00,,,0.00,Wunderground v.1.15,2013-01-16 21:55:00,
2013-01-16 15:00:00,26.4,12.0,30.90,South,188,0.0,3.0,54,0.00,,,0.00,Wunderground v.1.15,2013-01-16 22:00:00,
2013-01-16 15:10:00,26.5,12.9,30.90,SSE,167,0.0,3.0,56,0.00,,,0.00,Wunderground v.1.15,2013-01-16 22:10:00,
2013-01-16 15:15:00,26.4,13.2,30.90,South,173,1.0,3.0,57,0.00,,,0.00,Wunderground v.1.15,2013-01-16 22:15:00,
2013-01-16 15:25:00,26.5,13.3,30.91,South,173,1.0,3.0,57,0.00,,,0.00,Wunderground v.1.15,2013-01-16 22:25:00,
2013-01-16 15:30:00,26.5,13.3,30.91,South,173,0.0,3.0,57,0.00,,,0.00,Wunderground v.1.15,2013-01-16 22:30:00,
2013-01-16 15:35:00,26.4,13.6,30.91,South,173,0.0,3.0,58,0.00,,,0.00,Wunderground v.1.15,2013-01-16 22:35:00,
2013-01-16 15:45:00,26.3,12.7,30.92,South,173,0.0,3.0,56,0.00,,,0.00,Wunderground v.1.15,2013-01-16 22:45:00,
2013-01-16 15:50:00,26.2,13.0,30.92,South,173,0.0,3.0,57,0.00,,,0.00,Wunderground v.1.15,2013-01-16 22:50:00,
2013-01-16 15:55:00,26.1,12.9,30.92,South,173,0.0,3.0,57,0.00,,,0.00,Wunderground v.1.15,2013-01-16 22:55:00,
2013-01-16 16:00:00,25.9,13.1,30.93,South,173,0.0,3.0,58,0.00,,,0.00,Wunderground v.1.15,2013-01-16 23:00:00,
2013-01-16 16:05:00,25.7,12.6,30.93,South,173,0.0,3.0,57,0.00,,,0.00,Wunderground v.1.15,2013-01-16 23:05:00,
2013-01-16 16:10:00,25.4,12.7,30.92,South,173,0.0,3.0,58,0.00,,,0.00,Wunderground v.1.15,2013-01-16 23:10:00,
2013-01-16 16:16:00,25.1,12.4,30.93,South,173,0.0,3.0,58,0.00,,,0.00,Wunderground v.1.15,2013-01-16 23:16:00,
2013-01-16 16:25:00,24.2,11.9,30.93,South,173,0.0,2.0,59,0.00,,,0.00,Wunderground v.1.15,2013-01-16 23:25:00,
2013-01-16 16:30:00,23.9,12.0,30.92,South,173,0.0,2.0,60,0.00,,,0.00,Wunderground v.1.15,2013-01-16 23:30:00,
2013-01-16 16:35:00,23.4,11.5,30.92,South,173,0.0,2.0,60,0.00,,,0.00,Wunderground v.1.15,2013-01-16 23:35:00,
2013-01-16 16:45:00,22.5,11.8,30.93,South,173,0.0,2.0,63,0.00,,,0.00,Wunderground v.1.15,2013-01-16 23:45:00,
2013-01-16 16:50:00,22.1,11.4,30.93,South,173,0.0,2.0,63,0.00,,,0.00,Wunderground v.1.15,2013-01-16 23:50:00,
2013-01-16 16:55:00,21.8,11.5,30.93,South,173,0.0,2.0,64,0.00,,,0.00,Wunderground v.1.15,2013-01-16 23:55:00,
2013-01-16 17:00:00,21.4,10.7,30.93,South,173,0.0,2.0,63,0.00,,,0.00,Wunderground v.1.15,2013-01-17 00:00:00,
2013-01-16 17:05:00,20.6,10.3,30.93,South,173,0.0,2.0,64,0.00,,,0.00,Wunderground v.1.15,2013-01-17 00:05:00,
2013-01-16 17:10:00,20.1,10.6,30.94,South,173,0.0,2.0,66,0.00,,,0.00,Wunderground v.1.15,2013-01-17 00:10:00,
2013-01-16 17:16:00,19.7,10.2,30.94,South,173,0.0,2.0,66,0.00,,,0.00,Wunderground v.1.15,2013-01-17 00:16:00,
2013-01-16 17:25:00,19.5,10.3,30.94,South,173,0.0,1.0,67,0.00,,,0.00,Wunderground v.1.15,2013-01-17 00:25:00,
2013-01-16 17:30:00,19.4,10.2,30.94,South,173,0.0,1.0,67,0.00,,,0.00,Wunderground v.1.15,2013-01-17 00:30:00,
2013-01-16 17:35:00,19.0,10.2,30.95,South,173,0.0,1.0,68,0.00,,,0.00,Wunderground v.1.15,2013-01-17 00:35:00,
2013-01-16 17:40:00,18.6,9.8,30.95,South,173,0.0,1.0,68,0.00,,,0.00,Wunderground v.1.15,2013-01-17 00:40:00,
2013-01-16 17:50:00,17.9,9.1,30.96,South,173,0.0,1.0,68,0.00,,,0.00,Wunderground v.1.15,2013-01-17 00:50:00,
2013-01-16 17:55:00,17.3,8.9,30.95,South,173,0.0,1.0,69,0.00,,,0.00,Wunderground v.1.15,2013-01-17 00:55:00,
2013-01-16 18:00:00,16.8,8.7,30.96,South,173,0.0,1.0,70,0.00,,,0.00,Wunderground v.1.15,2013-01-17 01:00:00,
2013-01-16 18:10:00,15.8,8.1,30.96,South,173,0.0,1.0,71,0.00,,,0.00,Wunderground v.1.15,2013-01-17 01:10:00,
2013-01-16 18:16:00,15.5,8.1,30.96,South,173,0.0,1.0,72,0.00,,,0.00,Wunderground v.1.15,2013-01-17 01:16:00,
2013-01-16 18:25:00,15.1,8.0,30.96,South,173,0.0,0.0,73,0.00,,,0.00,Wunderground v.1.15,2013-01-17 01:25:00,
2013-01-16 18:30:00,14.5,7.4,30.96,South,173,0.0,0.0,73,0.00,,,0.00,Wunderground v.1.15,2013-01-17 01:30:00,
2013-01-16 18:35:00,13.8,6.7,30.97,South,173,0.0,0.0,73,0.00,,,0.00,Wunderground v.1.15,2013-01-17 01:35:00,
2013-01-16 18:40:00,13.5,6.8,30.97,South,173,0.0,0.0,74,0.00,,,0.00,Wunderground v.1.15,2013-01-17 01:40:00,
2013-01-16 18:50:00,12.7,6.3,30.97,South,173,0.0,0.0,75,0.00,,,0.00,Wunderground v.1.15,2013-01-17 01:50:00,
2013-01-16 18:55:00,12.5,6.1,30.98,South,173,0.0,0.0,75,0.00,,,0.00,Wunderground v.1.15,2013-01-17 01:55:00,
2013-01-16 19:00:00,12.3,5.9,30.97,South,173,0.0,0.0,75,0.00,,,0.00,Wunderground v.1.15,2013-01-17 02:00:00,
2013-01-16 19:05:00,12.5,6.4,30.98,South,173,0.0,0.0,76,0.00,,,0.00,Wunderground v.1.15,2013-01-17 02:05:00,
2013-01-16 19:10:00,12.6,6.2,30.98,South,173,0.0,0.0,75,0.00,,,0.00,Wunderground v.1.15,2013-01-17 02:10:00,
2013-01-16 19:15:00,12.0,4.7,30.98,South,173,0.0,0.0,72,0.00,,,0.00,Wunderground v.1.15,2013-01-17 02:15:00,
2013-01-16 19:20:00,11.3,4.3,30.97,South,173,0.0,0.0,73,0.00,,,0.00,Wunderground v.1.15,2013-01-17 02:20:00,
2013-01-16 19:25:00,10.5,3.8,30.97,South,173,0.0,0.0,74,0.00,,,0.00,Wunderground v.1.15,2013-01-17 02:25:00,
2013-01-16 19:30:00,10.1,4.0,30.97,South,173,0.0,0.0,76,0.00,,,0.00,Wunderground v.1.15,2013-01-17 02:30:00,
2013-01-16 19:35:00,10.1,4.6,30.97,South,173,0.0,0.0,78,0.00,,,0.00,Wunderground v.1.15,2013-01-17 02:35:00,
2013-01-16 19:40:00,10.3,4.8,30.97,South,173,0.0,0.0,78,0.00,,,0.00,Wunderground v.1.15,2013-01-17 02:40:00,
2013-01-16 19:45:00,9.9,3.6,30.97,South,173,0.0,0.0,75,0.00,,,0.00,Wunderground v.1.15,2013-01-17 02:45:00,
2013-01-16 19:55:00,9.2,3.2,30.97,South,173,0.0,0.0,76,0.00,,,0.00,Wunderground v.1.15,2013-01-17 02:55:00,
2013-01-16 20:00:00,8.7,2.7,30.97,South,173,0.0,0.0,76,0.00,,,0.00,Wunderground v.1.15,2013-01-17 03:00:00,
2013-01-16 20:05:00,8.6,3.1,30.96,South,173,0.0,0.0,78,0.00,,,0.00,Wunderground v.1.15,2013-01-17 03:05:00,
2013-01-16 20:10:00,8.8,3.3,30.97,South,173,0.0,0.0,78,0.00,,,0.00,Wunderground v.1.15,2013-01-17 03:10:00,
2013-01-16 20:15:00,8.8,3.1,30.97,South,173,0.0,0.0,77,0.00,,,0.00,Wunderground v.1.15,2013-01-17 03:15:00,
2013-01-16 20:25:00,8.5,2.8,30.97,South,173,0.0,0.0,77,0.00,,,0.00,Wunderground v.1.15,2013-01-17 03:25:00,
2013-01-16 20:30:00,8.0,2.0,30.97,South,173,0.0,0.0,76,0.00,,,0.00,Wunderground v.1.15,2013-01-17 03:30:00,
2013-01-16 20:35:00,7.5,1.8,30.97,South,173,0.0,0.0,77,0.00,,,0.00,Wunderground v.1.15,2013-01-17 03:35:00,
2013-01-16 20:40:00,7.3,1.9,30.97,South,173,0.0,0.0,78,0.00,,,0.00,Wunderground v.1.15,2013-01-17 03:40:00,
2013-01-16 20:45:00,7.3,2.2,30.98,South,173,0.0,0.0,79,0.00,,,0.00,Wunderground v.1.15,2013-01-17 03:45:00,
2013-01-16 20:50:00,7.2,2.1,30.98,South,173,0.0,0.0,79,0.00,,,0.00,Wunderground v.1.15,2013-01-17 03:50:00,
2013-01-16 21:00:00,7.0,1.6,30.98,South,173,0.0,0.0,78,0.00,,,0.00,Wunderground v.1.15,2013-01-17 04:00:00,
2013-01-16 21:05:00,6.9,1.2,30.98,South,173,0.0,0.0,77,0.00,,,0.00,Wunderground v.1.15,2013-01-17 04:05:00,
2013-01-16 21:10:00,6.6,0.9,30.98,South,173,0.0,0.0,77,0.00,,,0.00,Wunderground v.1.15,2013-01-17 04:10:00,
2013-01-16 21:16:00,6.5,1.4,30.98,South,173,0.0,0.0,79,0.00,,,0.00,Wunderground v.1.15,2013-01-17 04:16:00,
2013-01-16 21:25:00,6.2,0.8,30.98,South,173,0.0,0.0,78,0.00,,,0.00,Wunderground v.1.15,2013-01-17 04:25:00,
2013-01-16 21:30:00,6.1,1.0,30.99,South,173,0.0,0.0,79,0.00,,,0.00,Wunderground v.1.15,2013-01-17 04:30:00,
2013-01-16 21:35:00,6.2,1.4,30.99,South,173,0.0,0.0,80,0.00,,,0.00,Wunderground v.1.15,2013-01-17 04:35:00,
2013-01-16 21:40:00,5.7,0.0,30.99,South,173,0.0,0.0,77,0.00,,,0.00,Wunderground v.1.15,2013-01-17 04:40:00,
2013-01-16 21:45:00,5.3,-0.3,30.98,South,173,0.0,0.0,77,0.00,,,0.00,Wunderground v.1.15,2013-01-17 04:45:00,
2013-01-16 21:50:00,5.3,0.2,30.98,South,173,0.0,0.0,79,0.00,,,0.00,Wunderground v.1.15,2013-01-17 04:50:00,
2013-01-16 22:05:00,4.9,-0.5,30.98,South,173,0.0,0.0,78,0.00,,,0.00,Wunderground v.1.15,2013-01-17 05:05:00,
2013-01-16 22:10:00,4.7,-0.4,30.98,South,173,0.0,0.0,79,0.00,,,0.00,Wunderground v.1.15,2013-01-17 05:10:00,
2013-01-16 22:15:00,4.7,-0.1,30.98,South,173,0.0,0.0,80,0.00,,,0.00,Wunderground v.1.15,2013-01-17 05:15:00,
2013-01-16 22:20:00,4.7,-0.1,30.98,South,173,0.0,0.0,80,0.00,,,0.00,Wunderground v.1.15,2013-01-17 05:20:00,
2013-01-16 22:25:00,4.7,0.2,30.98,South,173,0.0,0.0,81,0.00,,,0.00,Wunderground v.1.15,2013-01-17 05:25:00,
2013-01-16 22:30:00,5.1,0.5,30.98,South,173,0.0,0.0,81,0.00,,,0.00,Wunderground v.1.15,2013-01-17 05:30:00,
2013-01-16 22:35:00,5.1,0.0,30.99,South,173,0.0,0.0,79,0.00,,,0.00,Wunderground v.1.15,2013-01-17 05:35:00,
2013-01-16 22:40:00,4.4,-1.2,30.99,South,173,0.0,0.0,77,0.00,,,0.00,Wunderground v.1.15,2013-01-17 05:40:00,
2013-01-16 22:45:00,4.1,-1.0,30.99,South,173,0.0,0.0,79,0.00,,,0.00,Wunderground v.1.15,2013-01-17 05:45:00,
2013-01-16 22:50:00,4.0,-0.5,30.98,South,173,0.0,0.0,81,0.00,,,0.00,Wunderground v.1.15,2013-01-17 05:50:00,
2013-01-16 22:55:00,4.0,-0.5,30.98,South,173,0.0,0.0,81,0.00,,,0.00,Wunderground v.1.15,2013-01-17 05:55:00,
2013-01-16 23:10:00,4.0,-1.1,30.99,South,173,0.0,0.0,79,0.00,,,0.00,Wunderground v.1.15,2013-01-17 06:10:00,
2013-01-16 23:15:00,4.2,-0.6,30.99,South,173,0.0,0.0,80,0.00,,,0.00,Wunderground v.1.15,2013-01-17 06:15:00,
2013-01-16 23:25:00,4.1,-1.0,30.99,South,173,0.0,0.0,79,0.00,,,0.00,Wunderground v.1.15,2013-01-17 06:25:00,
2013-01-16 23:30:00,4.0,-1.1,30.99,South,173,0.0,0.0,79,0.00,,,0.00,Wunderground v.1.15,2013-01-17 06:30:00,
2013-01-16 23:40:00,3.4,-1.9,30.99,South,173,0.0,0.0,78,0.00,,,0.00,Wunderground v.1.15,2013-01-17 06:40:00,
2013-01-16 23:45:00,3.4,-1.4,30.99,South,173,0.0,0.0,80,0.00,,,0.00,Wunderground v.1.15,2013-01-17 06:45:00,
2013-01-16 23:55:00,3.6,-0.9,30.99,South,173,0.0,0.0,81,0.00,,,0.00,Wunderground v.1.15,2013-01-17 06:55:00,